Weather in Mynchakovo

Russia / Vologda Oblast     59°27′59″N   39°09′29″E
temp.,
°C
wind,
m/s
gust,
m/s
humid.,
%
clouds,
%
prec.,
mm/h
press.,
hPa
HPBL,
m
15 august, mon
mon1500:00+16ese11924 0.0 102211
03:00+16e119287 0.0 102313
06:00+17ese2289100 0.0 102352
09:00+18ese2385100 0.0 1023145
12:00+21se237138 0.0 1024349
15:00+26ese124911 0.0 10231621
18:00+23e226694 0.0 102265
21:00+20se227345 0.0 102327
16 august, tue
tue1600:00+19sse2376100 0.0 102440
03:00+18s227895 0.0 102431
06:00+17sse2381100 0.0 102458
09:00+21sse2468100 0.0 1024272
12:00+25sse2449100 0.0 1024961
15:00+26s334674 0.0 10241152
18:00+24sse236338 0.0 1023112
21:00+18sse227112 0.0 102411
17 august, wed
wed1700:00+18se227188 0.0 102426
03:00+18sse2372100 0.0 102353
06:00+17se11785 0.0 102316
09:00+23sse23575 0.0 1023409
12:00+26sse23464 0.0 10221380
15:00+26ese444614 0.0 10221595
18:00+24e235918 0.0 1021119
21:00+19se3768100 0.0 1021112
18 august, thu
thu1800:00+17se257397 0.0 1022101
03:00+15ese228073 0.0 102230
06:00+16ese237982 0.0 102277
09:00+21se346081 0.0 1022347
12:00+25se235171 0.0 1022980
15:00+25ne125689 0.0 1022570
18:00+24ene226469 0.0 102246
21:00+21ese226784 0.0 102227
19 august, fri
fri1900:00+18se227214 0.0 102322
03:00+16se22775 0.0 102333
06:00+16se23795 0.0 102452
09:00+22se23585 0.0 1025348
12:00+26se34455 0.0 10241580
15:00+27se44415 0.0 10242151
18:00+24ese375723 0.0 1024289
21:00+19ese236822 0.0 102455